RADUGA 2 1 09416U 76092A 21015.98969738 -.00000197 00000-0 00000-0 0 9990 2 09416 8.4482 297.4711 0028712 344.2728 276.5159 1.00276702109504 SL-12 R/B(2) 1 17872U 76092F 21015.82964958 -.00000115 00000-0 00000-0 0 9997 2 17872 8.4309 297.6888 0016929 134.0936 58.9798 1.00322557 99089